Temp
9 10 10 11 12 12 12 13 13 13 13 13 14 14 14 15 15 15 15 14 15 15 15 15 16 16 17 17 17 18 19 20 19 19 18 17 16 15 14 13 13 12 14 14 14
9 10 10 11 11 12 12 12 12 13 13 13 14 14 14 14 15 15 15 15 15 15 15 15 16 16 16 17 18 18 20 20 19 19 18 17 17 16 15 13 13 12 13 14 14
10 9 10 11 11 11 12 12 12 12 13 13 13 14 14 14 15 16 14 14 15 15 15 15 15 16 17 18 19 19 20 18 18 18 18 17 17 16 16 15 13 15 14 14 14
9 10 10 11 11 11 11 12 12 12 12 13 14 14 14 14 14 14 15 15 15 15 15 16 15 16 18 18 18 19 18 18 17 17 18 17 16 15 14 14 13 14 14 14 14
9 10 10 10 11 11 11 11 12 12 13 13 14 14 14 14 14 15 14 15 15 15 15 15 16 17 18 19 18 18 18 17 17 17 17 16 15 13 12 15 14 14 14 14 12
9 9 10 10 11 11 11 12 12 12 13 14 14 14 14 15 13 15 15 15 15 15 15 15 16 18 18 18 19 18 17 17 17 17 16 16 15 13 11 13 14 14 13 11 10
9 9 10 10 11 11 11 12 12 12 13 13 14 15 14 14 15 15 15 15 15 15 15 15 16 17 18 18 18 18 17 17 17 17 17 16 15 13 12 11 11 10 10 10 9
9 9 9 10 11 11 11 11 12 12 12 13 13 14 13 14 15 15 14 14 14 14 15 15 16 17 18 18 18 18 18 18 17 17 17 15 14 13 12 12 12 11 11 10 9
9 9 9 10 10 11 11 11 12 12 12 12 12 13 13 15 15 15 13 14 14 14 14 15 15 17 18 18 18 18 19 19 18 17 16 16 15 13 14 13 12 12 11 11 10
9 9 9 10 10 10 11 11 12 12 12 12 12 13 14 13 13 15 14 14 14 14 14 15 16 18 18 18 19 19 20 20 19 18 17 15 14 14 14 14 13 12 12 11 11
9 9 9 9 10 10 11 11 11 12 12 13 12 13 14 14 13 13 13 14 14 15 15 16 17 18 19 19 20 20 20 20 19 18 18 18 16 15 14 14 14 13 12 12 12
9 9 9 9 10 10 10 11 9 11 13 12 12 13 13 13 13 13 13 14 15 15 16 16 17 18 19 19 19 19 20 20 19 19 18 18 17 16 15 15 14 14 13 12 12
9 9 9 9 10 10 10 11 11 11 11 14 13 13 13 13 14 14 14 15 15 16 17 18 18 18 18 19 19 18 19 20 20 18 18 17 17 16 15 15 14 14 13 13 12
9 9 9 9 9 10 9 10 11 11 11 15 14 14 13 13 14 14 14 15 16 16 17 18 18 18 18 18 18 19 19 19 19 19 19 18 20 17 16 15 15 14 14 13 13
9 9 9 9 9 10 9 10 11 11 16 17 15 15 14 14 15 15 14 15 16 17 17 18 19 18 18 18 18 19 19 19 19 19 19 18 19 16 15 15 15 15 14 14 13
9 9 9 9 9 9 10 10 11 11 16 17 15 15 15 15 16 15 15 15 16 17 17 18 18 18 18 19 18 18 18 18 18 19 19 19 17 20 17 16 16 15 15 14 13
9 9 10 9 9 10 10 10 11 13 16 17 16 15 15 16 16 15 15 15 16 17 17 18 18 18 19 19 18 18 18 19 19 20 20 20 20 20 19 18 17 17 15 15 14
8 9 10 10 9 9 9 9 12 14 16 17 17 16 16 16 17 16 15 15 16 18 18 18 18 18 18 18 18 18 19 20 19 21 21 19 19 19 18 18 17 17 16 15 14
8 9 10 10 9 9 9 10 13 15 16 17 17 17 17 17 17 16 16 16 17 18 19 19 19 19 18 18 18 18 18 19 20 20 20 20 19 18 17 17 16 16 16 15 14
8 8 9 10 9 9 9 10 13 15 14 15 16 17 17 17 17 17 17 17 17 18 19 20 20 19 19 18 19 18 18 19 19 19 20 20 20 19 17 17 17 16 15 15 15
8 8 8 9 9 9 10 11 12 14 13 14 15 17 17 18 18 18 18 18 18 18 18 19 20 19 19 18 18 18 18 19 19 19 21 21 21 19 17 17 17 16 15 15 15
7 7 8 9 9 9 11 11 12 13 13 13 14 15 17 18 18 18 18 18 18 18 18 18 19 19 19 18 18 18 18 18 18 19 19 19 19 18 17 17 16 16 15 14 14
7 6 7 8 8 10 11 11 12 12 13 14 14 15 16 17 18 18 18 18 18 18 18 18 18 19 19 18 18 18 18 19 19 19 18 19 19 17 17 16 16 15 15 14 13
6 7 7 7 8 10 12 11 12 11 12 14 14 14 15 16 17 18 18 18 17 17 17 17 18 18 19 19 18 18 18 18 19 19 19 18 18 17 17 16 15 15 15 14 13
5 7 7 9 9 9 10 12 11 12 11 12 13 14 15 16 17 17 18 18 16 16 17 17 17 17 18 18 19 18 18 18 18 18 18 19 17 17 16 15 15 14 14 14 13
4 3 6 6 6 7 9 10 11 12 11 12 13 14 14 14 14 17 17 17 16 16 16 16 17 17 17 18 18 19 19 19 18 18 18 18 18 17 16 15 14 14 14 13 13
4 4 5 6 7 8 9 9 10 9 10 10 10 12 13 13 14 15 15 15 15 16 16 16 16 17 17 18 18 18 18 18 18 18 18 18 17 16 15 14 14 13 13 12 13
Height
3180 3178 3176 3174 3173 3173 3172 3171 3170 3168 3166 3165 3165 3165 3165 3166 3168 3170 3173 3176 3177 3179 3181 3183 3184 3184 3185 3182 3184 3186 3178 3181 3184 3187 3193 3196 3198 3199 3198 3197 3200 3200 3198 3198 3198
3178 3176 3174 3171 3170 3170 3169 3167 3165 3164 3162 3161 3160 3160 3160 3162 3163 3164 3169 3172 3174 3177 3180 3183 3185 3186 3188 3187 3187 3186 3182 3184 3188 3189 3193 3195 3196 3200 3200 3198 3199 3200 3199 3199 3200
3176 3174 3172 3169 3167 3166 3165 3164 3162 3160 3158 3157 3157 3156 3157 3158 3161 3162 3163 3168 3172 3175 3179 3182 3187 3189 3189 3189 3187 3186 3183 3191 3193 3192 3194 3197 3198 3198 3195 3195 3198 3199 3199 3200 3201
3173 3171 3169 3167 3164 3163 3162 3161 3159 3157 3155 3153 3153 3153 3154 3156 3163 3157 3161 3165 3170 3173 3177 3181 3186 3189 3188 3189 3190 3190 3191 3192 3195 3195 3195 3197 3199 3198 3191 3193 3197 3198 3200 3201 3202
3170 3168 3167 3165 3162 3160 3159 3158 3156 3153 3152 3151 3150 3150 3152 3154 3156 3155 3158 3163 3168 3172 3176 3181 3186 3188 3188 3189 3191 3190 3193 3195 3196 3196 3198 3199 3199 3197 3195 3195 3197 3198 3200 3201 3203
3167 3165 3164 3162 3160 3158 3157 3155 3153 3151 3150 3148 3147 3147 3149 3152 3153 3155 3157 3162 3167 3171 3176 3182 3186 3188 3188 3190 3190 3191 3194 3196 3197 3199 3200 3200 3200 3197 3197 3197 3198 3200 3201 3203 3204
3164 3162 3161 3159 3158 3155 3154 3153 3151 3149 3148 3146 3145 3144 3146 3152 3149 3153 3156 3162 3166 3171 3178 3182 3185 3188 3187 3190 3191 3193 3196 3197 3199 3200 3202 3202 3203 3200 3198 3198 3200 3203 3205 3206 3206
3161 3159 3158 3156 3155 3153 3152 3151 3149 3148 3146 3145 3143 3144 3145 3145 3147 3151 3155 3160 3166 3171 3179 3182 3183 3186 3188 3190 3192 3193 3194 3193 3198 3199 3201 3202 3205 3202 3202 3202 3204 3206 3207 3208 3207
3157 3156 3155 3153 3152 3151 3150 3148 3147 3146 3145 3145 3144 3144 3149 3144 3147 3150 3155 3160 3165 3171 3175 3177 3180 3185 3187 3189 3190 3189 3186 3190 3196 3197 3194 3197 3203 3203 3204 3204 3204 3206 3207 3208 3208
3153 3152 3151 3150 3149 3147 3148 3146 3144 3144 3144 3144 3145 3147 3144 3145 3147 3149 3155 3161 3165 3171 3174 3178 3181 3183 3184 3185 3184 3185 3184 3185 3190 3195 3197 3197 3203 3200 3204 3204 3204 3205 3206 3208 3209
3149 3148 3147 3147 3145 3144 3145 3146 3146 3143 3142 3142 3146 3145 3145 3148 3146 3149 3154 3161 3166 3171 3173 3176 3179 3178 3179 3181 3181 3182 3184 3184 3187 3191 3194 3195 3198 3200 3202 3204 3205 3205 3205 3207 3210
3144 3144 3143 3143 3142 3142 3141 3143 3144 3140 3137 3138 3140 3142 3144 3145 3147 3150 3154 3160 3164 3167 3171 3176 3174 3176 3178 3180 3181 3183 3182 3182 3185 3189 3193 3193 3193 3199 3201 3202 3204 3205 3204 3206 3207
3139 3139 3139 3139 3138 3139 3139 3140 3140 3137 3134 3135 3135 3137 3140 3144 3147 3149 3153 3158 3162 3166 3167 3168 3172 3174 3176 3178 3181 3182 3181 3182 3184 3188 3192 3191 3192 3194 3198 3200 3202 3203 3204 3205 3205
3134 3135 3135 3135 3136 3136 3137 3136 3138 3136 3134 3129 3130 3132 3137 3140 3145 3148 3151 3157 3161 3163 3166 3167 3168 3171 3174 3176 3179 3179 3180 3181 3183 3186 3184 3187 3182 3187 3194 3197 3197 3199 3201 3202 3203
3129 3130 3130 3130 3131 3133 3135 3134 3135 3137 3130 3121 3125 3130 3133 3136 3143 3144 3149 3155 3157 3159 3164 3164 3164 3167 3171 3173 3176 3176 3176 3180 3182 3181 3182 3181 3182 3181 3184 3188 3192 3195 3197 3199 3200
3124 3123 3125 3126 3127 3129 3131 3132 3133 3139 3125 3122 3122 3125 3130 3134 3139 3144 3147 3153 3155 3158 3160 3161 3163 3166 3168 3170 3173 3175 3178 3180 3180 3179 3177 3175 3185 3172 3176 3180 3184 3188 3192 3195 3196
3118 3118 3120 3121 3123 3124 3127 3130 3133 3126 3122 3119 3120 3123 3126 3129 3135 3139 3143 3147 3148 3151 3154 3157 3159 3162 3165 3168 3171 3175 3176 3175 3175 3171 3168 3169 3171 3172 3175 3178 3181 3182 3186 3189 3192
3112 3112 3114 3117 3118 3120 3124 3128 3123 3119 3115 3115 3117 3120 3123 3126 3129 3135 3140 3143 3145 3148 3152 3153 3156 3157 3161 3164 3168 3171 3170 3165 3166 3161 3160 3167 3171 3172 3174 3174 3177 3180 3181 3185 3187
3105 3106 3108 3111 3113 3115 3119 3121 3116 3114 3115 3113 3115 3116 3119 3122 3126 3131 3135 3138 3140 3142 3145 3147 3149 3155 3158 3161 3164 3166 3167 3165 3162 3162 3162 3160 3165 3169 3171 3174 3175 3177 3179 3180 3183
3100 3101 3103 3104 3108 3110 3114 3112 3111 3112 3113 3112 3111 3113 3114 3116 3121 3124 3129 3133 3137 3139 3140 3141 3145 3146 3154 3158 3160 3160 3164 3165 3164 3162 3157 3156 3160 3161 3166 3170 3172 3174 3174 3176 3178
3095 3098 3096 3099 3103 3104 3105 3106 3108 3109 3113 3114 3112 3109 3110 3111 3115 3117 3123 3128 3132 3136 3138 3139 3141 3145 3150 3152 3154 3160 3160 3160 3159 3160 3154 3153 3153 3157 3164 3167 3170 3171 3171 3171 3173
3091 3094 3092 3094 3098 3099 3100 3103 3105 3106 3109 3110 3109 3105 3104 3107 3110 3115 3118 3123 3128 3131 3135 3139 3140 3141 3142 3149 3153 3153 3154 3158 3158 3159 3159 3158 3156 3159 3162 3164 3167 3169 3169 3168 3170
3085 3089 3088 3090 3093 3095 3097 3099 3101 3104 3105 3107 3106 3106 3105 3104 3107 3110 3113 3118 3123 3127 3130 3136 3137 3138 3141 3144 3146 3147 3149 3150 3151 3152 3156 3156 3154 3156 3160 3162 3163 3165 3166 3165 3166
3082 3086 3087 3085 3088 3090 3091 3094 3097 3100 3099 3102 3103 3103 3104 3103 3104 3106 3110 3115 3117 3123 3127 3132 3133 3134 3132 3136 3140 3145 3147 3147 3146 3146 3146 3149 3151 3154 3155 3156 3158 3160 3160 3162 3161
3079 3083 3080 3084 3084 3087 3087 3089 3092 3095 3097 3099 3100 3101 3101 3101 3101 3104 3107 3109 3115 3120 3124 3128 3128 3131 3131 3131 3132 3136 3139 3142 3143 3144 3144 3143 3150 3151 3151 3151 3152 3154 3154 3155 3156
3074 3074 3074 3078 3078 3080 3084 3085 3088 3092 3093 3096 3096 3097 3098 3099 3098 3101 3102 3103 3109 3115 3120 3124 3125 3128 3127 3127 3128 3127 3130 3133 3136 3139 3141 3142 3142 3144 3146 3147 3149 3149 3148 3148 3149
3069 3070 3071 3076 3078 3081 3082 3085 3086 3086 3089 3091 3089 3093 3096 3095 3095 3096 3098 3102 3105 3109 3115 3119 3121 3123 3121 3122 3123 3122 3126 3129 3130 3132 3135 3138 3140 3139 3141 3144 3144 3142 3141 3140 3141
Wind_Speed
17 14 13 16 20 20 21 22 23 24 25 24 22 22 22 22 22 21 18 17 14 13 11 8 1 2 6 6 4 5 6 11 12 12 13 10 9 7 10 11 8 3 9 10 13
18 16 14 15 17 21 22 22 22 23 23 22 20 19 18 19 19 21 18 16 15 14 11 6 4 10 4 4 4 1 1 10 11 8 12 9 9 7 5 7 9 13 15 13 11
18 18 15 15 15 16 17 19 20 20 21 19 17 16 15 15 15 11 20 19 17 16 13 9 7 7 7 7 4 7 13 8 6 10 10 9 8 4 5 9 11 7 13 14 13
18 19 17 17 13 14 14 17 18 19 19 16 14 14 12 12 5 17 17 20 19 19 15 12 10 9 9 9 6 4 6 7 10 11 12 10 6 4 2 14 12 10 12 13 12
18 19 19 18 14 13 14 15 17 18 14 12 12 12 12 15 14 10 18 22 21 21 17 13 11 11 9 10 6 8 7 9 12 11 11 8 8 10 10 7 9 13 12 13 13
18 19 19 18 16 12 13 15 16 14 12 11 12 12 13 15 20 11 19 22 21 22 19 15 12 12 10 12 7 8 11 12 13 11 9 8 10 9 13 10 11 12 13 12 12
18 18 19 18 18 13 13 14 14 12 9 9 9 11 15 14 22 17 20 20 23 22 15 16 12 14 13 13 7 14 16 12 11 10 9 9 11 12 15 14 13 13 12 10 10
19 19 18 18 17 15 13 12 12 10 7 7 7 9 8 23 18 19 24 25 22 20 16 16 14 15 17 13 13 17 13 17 11 9 10 4 9 11 13 13 14 13 12 11 10
19 19 19 17 18 14 13 12 10 10 8 5 4 7 5 15 20 23 26 25 24 20 18 23 16 15 14 18 17 21 16 15 12 10 8 8 13 13 12 11 14 13 12 10 9
20 19 19 17 18 14 13 13 7 8 8 6 5 6 10 14 15 26 25 23 24 21 18 20 18 18 21 22 23 20 21 15 13 12 8 15 11 15 13 10 13 14 13 11 9
20 20 19 17 18 16 10 12 10 12 10 13 7 5 3 14 19 27 26 24 24 22 26 24 22 23 22 21 18 13 15 18 9 11 10 7 10 11 13 11 13 14 15 14 13
21 20 19 17 16 17 8 11 11 10 14 15 18 15 14 16 19 23 27 27 27 26 25 27 28 21 18 19 19 14 16 14 12 11 10 10 10 11 15 14 14 16 17 16 17
21 20 19 16 15 17 10 8 13 12 13 11 18 18 18 19 21 25 29 25 25 26 27 25 26 23 22 19 18 19 18 18 12 13 13 13 14 14 17 17 17 17 17 17 19
21 20 19 15 14 13 9 7 10 11 8 15 19 18 18 22 24 24 29 25 24 26 24 21 21 24 22 22 20 21 18 16 14 12 20 20 20 20 18 21 22 21 21 21 20
22 19 17 17 14 13 14 5 6 5 7 12 17 12 19 25 21 29 28 26 22 24 24 23 22 23 23 22 19 12 17 15 16 18 19 17 20 23 18 25 26 25 24 24 22
22 20 16 20 13 13 14 8 3 8 13 11 16 22 21 25 21 26 29 26 20 23 25 21 18 23 22 18 18 11 10 10 14 16 20 21 14 19 22 29 22 23 26 26 26
21 22 17 19 14 14 14 10 10 18 17 10 17 21 24 29 24 32 33 31 28 29 30 21 24 23 20 21 17 15 15 14 12 15 15 11 17 14 8 7 13 21 26 30 29
21 22 19 17 18 14 14 13 21 19 23 10 16 23 28 28 25 30 33 32 27 30 30 22 26 27 23 24 19 20 18 19 7 10 14 10 11 21 19 13 8 14 22 26 29
20 21 19 18 19 17 18 21 23 18 14 15 15 27 28 29 29 28 34 36 30 31 28 26 24 25 24 23 20 19 22 20 17 7 14 7 12 14 11 10 11 14 16 23 29
17 20 18 19 20 20 20 28 22 19 9 8 16 24 31 33 29 32 35 34 33 30 31 18 21 28 25 24 21 11 16 15 13 8 10 11 8 10 11 7 9 11 14 19 27
14 13 18 16 21 24 27 29 23 15 14 13 16 19 30 33 32 31 35 30 33 29 26 18 19 24 24 27 24 23 16 20 18 13 7 6 6 12 7 6 5 7 10 16 23
12 9 19 17 23 23 25 28 21 21 20 15 14 15 19 33 33 31 34 34 31 29 29 28 16 25 27 24 26 27 24 22 20 15 14 15 7 6 3 3 4 7 9 9 17
14 14 19 17 22 23 21 26 23 21 19 16 15 17 17 28 30 33 29 29 27 30 29 27 28 21 26 23 23 25 26 26 28 20 23 12 7 6 3 6 7 10 11 14 15
12 6 15 19 22 19 22 25 25 21 20 17 17 9 12 21 29 28 34 25 22 24 25 23 27 29 28 31 24 26 28 25 26 24 20 25 12 8 8 7 9 11 13 15 18
9 9 13 10 19 20 16 21 26 22 20 17 18 17 13 17 21 25 33 25 21 23 22 26 24 25 27 29 30 25 28 28 29 27 27 21 8 16 10 9 11 14 14 17 21
15 15 20 12 11 16 15 18 19 24 13 18 19 18 17 15 4 27 24 23 21 23 26 25 24 24 28 25 29 27 25 30 28 28 27 26 24 14 15 11 15 17 18 19 21
13 15 13 10 13 14 20 19 20 16 13 11 12 10 16 18 15 13 17 10 7 20 24 22 24 24 27 26 27 25 25 27 27 26 24 27 19 10 12 17 18 18 17 19 20
Wind_Direction
328 322 315 289 271 269 274 282 288 288 287 283 276 267 262 255 248 244 237 236 238 231 232 243 222 128 133 152 253 115 273 97 73 110 118 126 107 120 125 117 135 139 158 129 138
321 321 318 312 287 273 278 289 294 294 291 287 280 269 260 253 245 237 229 225 223 214 216 216 143 146 180 210 194 223 68 85 71 111 121 122 112 126 125 124 124 139 149 138 140
315 319 313 320 302 287 282 288 297 298 294 289 281 268 255 248 245 238 223 211 207 201 196 192 185 196 184 190 194 355 95 124 113 104 123 120 102 111 190 151 152 156 146 140 141
310 316 313 318 309 298 294 296 302 302 297 290 279 267 244 223 167 235 211 202 196 193 184 179 187 190 187 187 186 119 103 129 129 122 117 113 97 79 114 115 164 164 153 139 143
305 311 311 315 310 302 302 306 310 307 300 292 278 262 235 213 192 211 199 191 189 187 175 187 186 181 189 184 179 139 143 135 129 127 116 115 94 89 112 177 170 168 157 146 151
300 305 310 309 310 298 302 310 315 308 302 298 280 250 224 203 220 194 193 187 185 182 175 184 185 191 208 178 179 154 144 136 135 131 113 86 83 90 119 143 158 156 150 153 166
297 301 308 304 311 293 299 311 315 305 298 307 292 231 212 194 216 194 190 183 180 177 184 182 193 186 176 178 181 159 149 146 145 132 131 110 89 104 134 138 140 145 145 160 168
294 298 303 301 308 292 298 311 312 300 281 315 304 212 172 210 198 189 179 177 180 179 180 200 189 190 182 186 169 171 173 173 170 166 161 251 132 131 132 144 151 152 164 165 168
291 294 299 297 301 292 294 309 309 295 261 281 290 186 219 203 192 183 178 181 181 184 177 197 179 179 187 182 184 196 202 177 178 198 166 231 171 153 142 146 158 163 173 172 172
288 290 295 294 295 288 287 309 315 298 260 239 246 187 254 193 185 179 172 179 177 180 185 177 179 195 196 193 195 200 222 182 190 194 215 152 161 154 159 160 163 166 173 173 178
286 286 290 289 290 284 280 305 348 311 258 213 267 201 230 179 189 177 175 175 177 185 183 185 192 202 196 201 205 203 227 215 202 196 196 209 159 175 176 179 173 175 176 174 175
284 283 284 281 284 281 272 296 303 252 261 243 228 212 178 199 179 182 181 175 182 188 186 194 208 201 201 208 220 229 217 220 195 202 229 208 188 201 197 192 194 188 176 177 173
281 281 279 274 279 278 270 281 295 295 277 250 223 219 217 193 191 189 182 180 187 191 195 203 208 204 209 213 221 222 232 216 204 216 228 195 224 199 209 204 198 198 190 185 184
277 278 277 265 272 270 278 271 297 304 282 234 210 217 205 194 198 196 187 180 195 197 200 212 206 206 211 214 211 217 216 216 220 222 220 217 247 190 208 211 207 202 205 196 195
272 272 272 259 249 258 243 250 280 281 268 192 199 201 190 195 188 198 191 191 198 196 199 205 193 192 200 201 200 231 193 217 238 225 258 186 241 193 219 215 218 213 212 209 205
269 267 262 261 246 242 247 240 228 230 249 191 179 180 185 191 198 191 191 196 204 200 200 200 203 197 196 197 199 199 190 215 231 237 231 225 237 208 210 208 221 222 218 216 212
264 262 256 251 237 227 228 226 224 232 225 206 201 193 191 184 189 191 189 195 198 195 194 208 200 194 203 193 193 200 199 209 219 222 240 225 234 237 262 225 247 229 222 217 213
261 259 252 242 229 220 218 222 241 223 235 214 206 194 191 187 196 191 191 195 199 198 187 194 190 197 195 198 196 211 207 227 181 234 228 168 237 261 250 256 249 219 223 216 218
260 258 247 238 221 207 209 225 218 212 234 241 209 195 197 194 189 191 197 197 194 194 191 198 202 196 204 203 203 204 227 227 280 231 274 235 216 220 230 241 235 228 223 225 221
258 256 249 232 218 200 207 224 225 222 248 216 242 211 205 200 199 198 197 201 201 204 211 210 209 202 206 209 213 231 206 226 234 267 243 249 220 265 177 231 241 245 241 227 225
259 252 247 227 215 198 212 221 230 230 221 229 236 226 217 204 202 201 202 204 205 207 213 221 222 192 207 209 205 214 223 230 247 247 287 260 242 141 169 203 232 264 258 235 220
247 225 246 226 215 213 221 217 221 233 231 233 245 246 221 211 204 214 209 209 208 211 211 218 223 233 199 218 221 226 216 226 236 231 248 281 289 186 195 212 263 287 269 236 217
236 217 261 218 214 220 229 221 224 228 225 228 228 230 233 219 218 212 213 211 212 214 215 215 226 231 235 220 221 234 233 227 223 230 208 234 217 140 198 262 267 281 275 252 228
229 237 227 229 217 240 227 220 223 227 234 227 215 231 220 222 217 215 213 206 196 200 216 214 228 229 239 226 221 219 233 238 244 235 241 224 241 210 253 233 287 290 286 252 245
211 218 215 214 224 223 225 223 219 226 235 228 229 219 222 219 217 213 210 202 197 209 213 215 227 231 237 247 227 232 223 228 237 243 262 264 223 262 296 293 277 279 268 255 241
209 226 215 226 238 207 213 210 214 216 224 223 226 227 211 217 207 214 213 206 208 208 208 214 227 233 242 243 236 238 232 231 227 234 248 258 267 279 276 295 298 287 275 262 253
233 223 209 227 231 224 222 221 214 215 215 238 205 209 217 228 231 204 196 155 157 192 206 214 226 230 239 236 240 241 239 245 247 242 240 259 267 270 274 283 290 285 273 263 245